{"data":{"norad_id":60301,"intl_designator":"2024-133A","name":"STARLINK-11147 [DTC]","alt_names":[],"object_type":"PAYLOAD","status":"ACTIVE","operator":null,"country":"US","launch_date":"2024-07-28","launch_site_code":"AFWTR","launch_vehicle":null,"mission":null,"orbit_class":"UNKNOWN","rcs_meters":null,"size_class":null,"mass_kg":null,"dimensions":null,"purposes":["comms"],"wikipedia_slug":null,"has_3d_model":false,"image_url":null,"decayed_at":null,"tle_current":{"epoch":"2026-05-25T02:36:38.522880Z","epoch_age_seconds":61793,"freshness":"FRESH","line1":"1 60301U 24133A   26145.10877920 -.00000741  00000+0 -12624-5 0  9998","line2":"2 60301  53.1602 129.7211 0001116  99.2708 260.8436 15.69696024105739","mean_motion":15.69696024,"eccentricity":0.0001116,"inclination_deg":53.1602,"raan_deg":129.7211,"arg_perigee_deg":99.2708,"mean_anomaly_deg":260.8436,"bstar":-1.2624e-6,"rev_number":10573,"period_min":91.737507006643,"perigee_km":359.01479462089,"apogee_km":360.5186947367,"semimajor_km":6737.9037446788,"source":"CELESTRAK","updated_at":"2026-05-25T13:38:19.227158Z"}}}